Auburn, CA

10:10 AM PST on November 13, 2019 (GMT -0800)
Auburn Municipal

Weather History for KAUN - September, 2019

Change the Weather History Date:

Sunday, September 29, 2019

  Actual Average Record
Temperature  
Mean Temperature 52 °F -  
Max Temperature 62 °F 83 °F 99 °F (1966)
Min Temperature 41 °F 56 °F 42 °F (2007)
Degree Days  
Heating Degree Days 14    
Growing Degree Days 2 (Base 50)    
Moisture  
Dew Point 41 °F    
Average Humidity 70    
Maximum Humidity 94    
Minimum Humidity 34    
Precipitation  
Precipitation 0.13 in - - ()
Sea Level Pressure  
Sea Level Pressure 29.88 in    
Wind  
Wind Speed 4 mph ()    
Max Wind Speed 12 mph    
Max Gust Speed 17 mph    
Visibility 9.8 miles    
Events      
Averages and records for this station are not official NWS values.
T = Trace of Precipitation, MM = Missing Value Source: Averaged Metar Reports

Daily Weather History Graph

Daily Weather History Graph

Search for Another Location

Airport or City:

Astronomy

Sep. 29, 2019 Rise Set
Actual Time 6:58 AM PDT 6:50 PM PDT
Civil Twilight 6:31 AM PDT 7:16 PM PDT
Nautical Twilight 6:00 AM PDT 7:47 PM PDT
Astronomical Twilight 5:29 AM PDT 8:19 PM PDT
Moon 7:55 AM PDT (9/29) 7:54 PM PDT (9/29)
Length of Visible Light 12h 45m
Length of Day
11h 52m
New Moon, 2% of the Moon is Illuminated
Sep 29
New Moon
Oct 5
First Quarter
Oct 13
Full
Oct 21
Last Quarter
Oct 27
New

Hourly Weather History & Observations

Time (PDT) Temp. Windchill Dew Point Humidity Pressure Visibility Wind Dir Wind Speed Gust Speed Precip Events Conditions
12:15 AM 46.4 °F 42.4 °F 42.8 °F 87% 29.82 in 10.0 mi ESE 8.1 mph - N/A   Clear
12:35 AM 44.6 °F - 41.0 °F 87% 29.82 in 10.0 mi Calm Calm - N/A   Clear
1:15 AM 44.6 °F - 41.0 °F 87% 29.81 in 10.0 mi Calm Calm - N/A   Clear
1:35 AM 44.6 °F - 41.0 °F 87% 29.82 in 10.0 mi Calm Calm - N/A   Clear
1:55 AM 42.8 °F - 41.0 °F 93% 29.82 in 10.0 mi Calm Calm - N/A   Clear
2:15 AM 44.6 °F - 41.0 °F 87% 29.82 in 10.0 mi Calm Calm - N/A   Clear
2:35 AM 42.8 °F - 41.0 °F 93% 29.83 in 10.0 mi Calm Calm - N/A   Clear
2:55 AM 42.8 °F - 41.0 °F 93% 29.83 in 10.0 mi Calm Calm - N/A   Clear
3:15 AM 42.8 °F - 41.0 °F 93% 29.83 in 10.0 mi Calm Calm - N/A   Clear
3:30 AM 42.8 °F - 41.0 °F 93% 29.84 in 10.0 mi Calm Calm - N/A   Clear
3:55 AM 42.8 °F - 41.0 °F 93% 29.84 in 10.0 mi Calm Calm - N/A   Clear
4:15 AM 42.8 °F 39.3 °F 41.0 °F 93% 29.85 in 10.0 mi ESE 5.8 mph - N/A   Clear
4:35 AM 42.8 °F 39.3 °F 41.0 °F 93% 29.86 in 10.0 mi SE 5.8 mph - N/A   Clear
4:55 AM 42.8 °F 40.1 °F 41.0 °F 93% 29.86 in 10.0 mi East 4.6 mph - N/A   Clear
5:15 AM 42.8 °F 38.0 °F 41.0 °F 93% 29.86 in 10.0 mi East 8.1 mph - N/A   Clear
5:35 AM 42.8 °F - 41.0 °F 93% 29.86 in 10.0 mi Calm Calm - N/A   Clear
5:55 AM 41.0 °F - 39.2 °F 93% 29.87 in 10.0 mi Calm Calm - N/A   Clear
6:15 AM 41.0 °F - 39.2 °F 93% 29.88 in 10.0 mi Calm Calm - N/A   Clear
6:35 AM 42.8 °F 37.5 °F 39.2 °F 87% 29.88 in 10.0 mi ESE 9.2 mph - N/A   Clear
6:55 AM 41.0 °F 35.8 °F 39.2 °F 93% 29.89 in 10.0 mi ESE 8.1 mph - N/A   Clear
7:15 AM 42.8 °F 37.5 °F 39.2 °F 87% 29.89 in 10.0 mi East 9.2 mph - N/A   Clear
7:35 AM 42.8 °F 37.5 °F 41.0 °F 93% 29.90 in 10.0 mi East 9.2 mph - N/A   Clear
7:55 AM 44.6 °F 40.2 °F 41.0 °F 87% 29.90 in 10.0 mi East 8.1 mph - N/A   Clear
8:15 AM 44.6 °F 40.2 °F 41.0 °F 87% 29.91 in 10.0 mi East 8.1 mph - N/A   Clear
8:35 AM 46.4 °F 42.4 °F 42.8 °F 87% 29.92 in 10.0 mi ESE 8.1 mph - N/A   Clear
8:55 AM 48.2 °F - 42.8 °F 82% 29.93 in 10.0 mi ESE 6.9 mph - N/A   Clear
9:15 AM 50.0 °F - 42.8 °F 76% 29.93 in 10.0 mi SE 8.1 mph - N/A   Clear
9:35 AM 50.0 °F - 42.8 °F 76% 29.94 in 10.0 mi SE 8.1 mph - N/A   Clear
9:55 AM 51.8 °F - 42.8 °F 71% 29.94 in 10.0 mi SSE 6.9 mph - N/A   Clear
10:15 AM 53.6 °F - 42.8 °F 67% 29.94 in 10.0 mi SSE 6.9 mph - N/A   Clear
10:35 AM 53.6 °F - 41.0 °F 62% 29.94 in 10.0 mi SSE 8.1 mph - N/A   Clear
10:55 AM 55.4 °F - 42.8 °F 63% 29.94 in 10.0 mi Calm Calm - N/A   Clear
11:15 AM 55.4 °F - 42.8 °F 63% 29.94 in 10.0 mi SSW 4.6 mph - N/A   Clear
11:35 AM 57.2 °F - 41.0 °F 55% 29.94 in 10.0 mi SSW 8.1 mph - N/A   Clear
11:55 AM 57.2 °F - 39.2 °F 51% 29.94 in 10.0 mi SSW 8.1 mph - N/A   Clear
12:15 PM 59.0 °F - 37.4 °F 45% 29.94 in 10.0 mi South 3.5 mph - N/A   Clear
12:35 PM 59.0 °F - 35.6 °F 42% 29.93 in 10.0 mi SE 6.9 mph - N/A   Partly Cloudy
12:55 PM 59.0 °F - 35.6 °F 42% 29.93 in 10.0 mi Calm Calm - N/A   Partly Cloudy
1:15 PM 60.8 °F - 35.6 °F 39% 29.92 in 10.0 mi Calm Calm - N/A   Partly Cloudy
1:35 PM 60.8 °F - 33.8 °F 36% 29.91 in 10.0 mi Calm Calm 11.5 mph N/A   Partly Cloudy
1:55 PM 60.8 °F - 33.8 °F 36% 29.90 in 10.0 mi Calm Calm 12.7 mph N/A   Clear
2:15 PM 62.6 °F - 33.8 °F 34% 29.90 in 10.0 mi South 8.1 mph 16.1 mph N/A   Clear
2:35 PM 60.8 °F - 35.6 °F 39% 29.89 in 10.0 mi WSW 9.2 mph 15.0 mph N/A   Clear
2:55 PM 62.6 °F - 35.6 °F 37% 29.89 in 10.0 mi SSW 10.4 mph - N/A   Clear
3:15 PM 62.6 °F - 33.8 °F 34% 29.89 in 10.0 mi SSW 10.4 mph - N/A   Clear
3:35 PM 62.6 °F - 35.6 °F 37% 29.88 in 10.0 mi Calm Calm 15.0 mph N/A   Clear
3:55 PM 60.8 °F - 35.6 °F 39% 29.88 in 10.0 mi SSW 11.5 mph - N/A   Clear
4:15 PM 60.8 °F - 35.6 °F 39% 29.88 in 10.0 mi South 8.1 mph - N/A   Scattered Clouds
4:35 PM 60.8 °F - 33.8 °F 36% 29.87 in 10.0 mi Variable 5.8 mph 12.7 mph N/A   Partly Cloudy
4:55 PM 60.8 °F - 33.8 °F 36% 29.86 in 10.0 mi South 11.5 mph - N/A   Clear
5:15 PM 60.8 °F - 35.6 °F 39% 29.86 in 10.0 mi SSW 9.2 mph - N/A   Clear
5:35 PM 60.8 °F - 33.8 °F 36% 29.85 in 10.0 mi South 9.2 mph - N/A   Mostly Cloudy
5:55 PM 60.8 °F - 33.8 °F 36% 29.85 in 10.0 mi Calm Calm - N/A   Overcast
6:15 PM 59.0 °F - 35.6 °F 42% 29.85 in 10.0 mi South 6.9 mph - N/A   Overcast
6:35 PM 53.6 °F - 41.0 °F 62% 29.85 in 3.0 mi Calm Calm 12.7 mph N/A   Haze
6:55 PM 53.6 °F - 42.8 °F 67% 29.85 in 6.0 mi SSW 9.2 mph 17.3 mph 0.10 in   Haze
7:15 PM 53.6 °F - 44.6 °F 72% 29.86 in 10.0 mi Calm Calm - N/A   Overcast
7:35 PM 53.6 °F - 44.6 °F 72% 29.86 in 10.0 mi SSW 8.1 mph - N/A   Overcast
7:55 PM 53.6 °F - 44.6 °F 72% 29.86 in 10.0 mi Calm Calm - N/A   Overcast
8:15 PM 55.4 °F - 44.6 °F 67% 29.85 in 10.0 mi South 8.1 mph - N/A   Overcast
8:35 PM 55.4 °F - 44.6 °F 67% 29.86 in 10.0 mi SSW 5.8 mph 12.7 mph N/A   Overcast
8:55 PM 53.6 °F - 44.6 °F 72% 29.87 in 10.0 mi SSW 6.9 mph 13.8 mph N/A   Overcast
9:15 PM 51.8 °F - 46.4 °F 82% 29.88 in 6.0 mi Calm Calm 15.0 mph N/A   Haze
9:35 PM 50.0 °F - 46.4 °F 87% 29.88 in 9.0 mi Calm Calm - N/A   Overcast
9:55 PM 50.0 °F - 48.2 °F 94% 29.88 in 10.0 mi Calm Calm - 0.02 in   Overcast
10:15 PM 50.0 °F - 48.2 °F 94% 29.88 in 10.0 mi Calm Calm - N/A   Overcast
10:35 PM 50.0 °F - 48.2 °F 94% 29.89 in 10.0 mi Calm Calm - N/A   Overcast
10:55 PM 51.8 °F - 48.2 °F 88% 29.89 in 10.0 mi Calm Calm - 0.01 in   Overcast
11:15 PM 50.0 °F - 48.2 °F 94% 29.89 in 10.0 mi Calm Calm - N/A   Overcast
11:35 PM 50.0 °F - 46.4 °F 87% 29.89 in 10.0 mi Calm Calm - N/A   Overcast